[Date Prev][Date Next][Thread Prev][Thread Next] - [Date Index][Thread Index][Author Index]
2 Line ISS Keps 11-23
- Subject: [sarex] 2 Line ISS Keps 11-23
- From: "Scott Avery WA6LIE" <wa6lie@xxxxxxx>
- Date: Tue, 22 Nov 2005 17:50:36 -0800
- Seal-Send-Time: Tue, 22 Nov 2005 17:50:36 -0800
ISS
1 25544U 98067A 05327.03675037 .00010518 00000-0 81739-4 0 8073
2 25544 051.6433 166.7623 0008321 317.5217 179.6044 15.72405536400682
----
Via the sarex mailing list at AMSAT.ORG courtesy of AMSAT-NA.
To unsubscribe, send "unsubscribe sarex" to Majordomo@amsat.org
AMSAT Home